Location: Boćki
(52.6512°N, 23.0459°E)
Time: 08:51:10
(UTC+02:00)

ISS - Pass Details

Date: 29 March 2019
Orbit: 408 x 410 km, 51.6° (Epoch: 21 April)

Event Time Altitude Azimuth Distance (km) Brightness Sun altitude
Rises 18:29:28 0° 255° (WSW) 2,335 1.3 -5.8°
Reaches altitude 10° 18:31:33 10° 252° (WSW) 1,474 0.1 -6.1°
Maximum altitude 18:34:50 66° 170° (S) 450 -3.7 -6.6°
Drops below altitude 10° 18:38:07 10° 87° (E) 1,476 -1.6 -7.0°
Enters shadow 18:38:24 - 87° (E) 1,588 -1.4 -7.1°
